This demonstration page uses our WeatherBlox Daily Observations layout. Learn more.

Left ArrowRight Arrow

Hourly Observations for November 4, 2021

Temp ( °F °C ) Dew Point ( °F °C ) Humidity (%) Winds ( mph kmh ) Pressure ( in mb ) Visibility ( mi km ) Precip ( " mm )
12:53 am 00:53 Clear 40 4.4 34 1.1 79 79 W 5 7 29.96 1014 10 16 0.00 0.00
1:53 am 01:53 Clear 40 4.4 34 1.1 79 79 Calm 29.94 1014 10 16 0.00 0.00
2:53 am 02:53 Clear 38 3.3 33 0.6 83 83 WNW 7 11 29.92 1013 10 16 0.00 0.00
3:53 am 03:53 Clear 37 2.8 33 0.6 86 86 WSW 6 9 29.91 1013 10 16 0.00 0.00
4:53 am 04:53 Clear 38 3.3 33 0.6 83 83 S 6 9 29.89 1012 10 16 0.00 0.00
5:53 am 05:53 Mostly Clear 40 4.4 35 1.7 83 83 Calm 29.87 1012 10 16 0.00 0.00
6:53 am 06:53 Clear 36 2.2 33 0.6 89 89 Calm 29.88 1012 10 16 0.00 0.00
7:53 am 07:53 Clear 35 1.7 32 0 89 89 E 5 7 29.85 1011 10 16 0.00 0.00
8:53 am 08:53 Sunny 34 1.1 32 0 92 92 Calm 29.84 1011 10 16 0.00 0.00
9:53 am 09:53 Sunny 41 5 35 1.7 79 79 Calm 29.82 1010 10 16 0.00 0.00
10:53 am 10:53 Sunny 47 8.3 36 2.2 66 66 Calm 29.78 1008 10 16 0.00 0.00
11:53 am 11:53 Sunny 51 10.6 38 3.3 61 61 Calm 29.75 1008 10 16 0.00 0.00
12:53 pm 12:53 Sunny 54 12.2 38 3.3 55 55 Calm 29.72 1006 10 16 0.00 0.00
1:53 pm 13:53 Sunny 54 12.2 40 4.4 59 59 ENE 6 9 29.69 1005 10 16 0.00 0.00
2:53 pm 14:53 Sunny 56 13.3 40 4.4 55 55 SE 6 9 29.68 1005 10 16 0.00 0.00
3:53 pm 15:53 Sunny 58 14.4 41 5 53 53 E 6 9 29.65 1004 10 16 0.00 0.00
4:53 pm 16:53 Sunny 57 13.9 42 5.6 58 58 E 7 11 29.62 1003 10 16 0.00 0.00
5:53 pm 17:53 Sunny 53 11.7 42 5.6 66 66 ENE 7 11 29.61 1003 10 16 0.00 0.00
6:53 pm 18:53 Mostly Clear 50 10 41 5 71 71 SW 3 6 29.64 1004 10 16 0.00 0.00
7:53 pm 19:53 Cloudy 59 15 39 3.9 48 48 W 23 37 29.64 1004 10 16 0.00 0.00
11:53 pm 23:53 Clear 50 10 41 5 71 71 SW 12 19 29.69 1005 10 16 0.00 0.00

Powered by AerisWeather